Location: La Bastide
(43.1661°N, 1.2755°E)
Time: 15:35:06
(UTC+00:00)

NOSS 2-3 (D) - Pass Details

Date: 13 December 2025
Orbit: 497 x 1701 km, 63.3° (Epoch: 24 April)

Event Time Altitude Azimuth Distance (km) Brightness Sun altitude
Rises 16:57:09 0° 208° (SSW) 2,677 7.8 -6.8°
Reaches altitude 10° 16:59:23 10° 206° (SSW) 1,730 6.7 -7.2°
Maximum altitude 17:03:04 67° 124° (ESE) 542 3.2 -7.8°
Drops below altitude 10° 17:06:48 10° 41° (NE) 1,741 5.3 -8.4°
Enters shadow 17:07:02 - 41° (NE) 1,845 5.4 -8.4°
